Portada
METAR-TAF:

METAR-TAF

Aeropuertos :

Seldovia, Alaska, Estados Unidos

latitud: 59-27N, longitud: 151-42W, altitud: 9 m

Observación

El informe se hizo hace 49 minutos, a las 03:53 UTC
Viento 5 kt del norte
Temperatura 15°C
Humedad 77%
Presión 1027 hPa
Visibilidad: 16.1 km
Cielo despejado

METAR: PASO 250353Z AUTO 01005KT 10SM CLR 15/11 A3033 RMK AO2 SLP270 T01500111 TSNO

Hora: 20:42 (04:42 UTC)


TAF: falta

Observaciones y pronósticos meteorológicos de más de 4000 aeropuertos (mensajes METAR y TAF).

Los puntos amarillos y rojos representan las estaciones disponibles.

Ponga el ratón en el punto deseado para ver el nombre de la estación.

Haga clic para ver las observaciones y los pronósticos meteorológicos.

Para cambiar el mapa : haga clic en los botones verdes con una cruz de color negro para hacer un zoom, en el botón verde con un guión para alejar o en las flechas verdes para mapas adyacentes.


METAR-TAF: